Other Surface Observations
Issued by NWS

Home | Current Version | Previous Version | Text Only | Print | Product List | Glossary On
Versions: 1 2 3 4 5 6 7 8 9 10 11 12 13 14 15 16 17 18 19 20 21 22 23 24 25 26 27 28 29 30 31 32 33 34 35 36 37 38 39 40 41 42 43 44 45 46 47 48 49 50
013
SXUS52 KTAE 231306
OSOTAE
OSOTAE
North Florida/South Alabama/Southwest Georgia Weather Roundup
National Weather Service Tallahassee Florida
900 AM EDT TUE MAY 23 2017

Note: "fair" indicates few or no clouds below 12,000 feet with no
significant weather and/or obstructions to visibility.

!FLZ017-115-028-034-025-231400
...North Florida...

CITY           SKY/WX    TMP DP  RH WIND       PRES   REMARKS
TALLAHASSEE    CLOUDY    73  72  96 SE3       29.85F
APALACHICOLA   PTSUNNY   78  78 100 S15G23    29.85S
PERRY          LGT RAIN  79  72  80 S8        29.89S
CROSS CITY     CLOUDY    75  72  88 S6        29.89F
JACKSONVILLE   CLOUDY    74  73  97 SW9       29.91S
$$

!FLZ112-006-005-002-011-231400
...Florida Panhandle...

CITY           SKY/WX    TMP DP  RH WIND       PRES   REMARKS
MARIANNA       LGT RAIN  74  73  97 VRB3      29.82F FOG
BONIFAY        CLOUDY    73  73 100 E3        29.82F
PANAMA CITY NW PTSUNNY   78  74  87 S10       29.81S
TYNDALL AFB    PTSUNNY   78  74  87 S14       29.83S
TYND DRONE APT PTSUNNY   78  75  91 S16G36    29.83S
DE FUNIAK SPR  RAIN      73  73  99 S7        29.81F
EGLIN AFB      PTSUNNY   78  73  84 S16G22    29.79S
DESTIN         CLOUDY    81  81 100 S10G20    29.80R HX  92
HURLBURT       PTSUNNY   79  74  85 S16G23    29.78R
CRESTVIEW      LGT RAIN  74  73  97 SW12G18   29.80R
PENSACOLA      PTSUNNY   81  72  74 SW18G29   29.78R
$$

!ALZ063-066-231400
...South Alabama...

CITY           SKY/WX    TMP DP  RH WIND       PRES   REMARKS
DOTHAN         CLOUDY    72  72 100 E5        29.85F
OZARK CAIRNS   DRIZZLE   72  70  94 E3        29.80F
FT RUCKER HELI LGT RAIN  71  70  97 SE3       29.80F
RUCKER HELI 3  LGT RAIN  70  69  97 CALM      29.81S FOG
RUCKER HELI 2  LGT RAIN  72  70  94 SE5       29.80F FOG
FLORALA APT    LGT RAIN  72  69  90 S7        29.80F FOG
ANDALUSIA      HVY RAIN  70  66  87 E9        29.79F FOG
TROY           RAIN      68  68 100 NE9       29.82F FOG
EUFALA         LGT RAIN  71  68  90 VRB5      29.82F FOG
MOBILE         PTSUNNY   75  69  81 S15       29.77S
$$

!GAZ120>161-231400
...Southwest and South Central Georgia...

CITY           SKY/WX    TMP DP  RH WIND       PRES   REMARKS
THOMASVILLE    CLOUDY    73  73 100 CALM      29.87F
BAINBRIDGE     CLOUDY    73  72  94 S5        29.85S
MOODY AFB      CLOUDY    73  72  94 S9        29.86
VALDOSTA       LGT RAIN  72  71  97 S3        29.88S FOG
MOULTRIE       CLOUDY    73  72  94 CALM      29.87F
BLAKELY        CLOUDY    73  72  94 CALM      29.84F
ALBANY         CLOUDY    74  73  97 SW6       29.86F
TIFTON           N/A     73  73 100 SW5       29.87F
FITZGERALD     CLOUDY    75  74  96 S6        29.89S
CORDELE        LGT RAIN  77  74  90 CALM      29.86F
AMERICUS       HVY RAIN  68  68 100 NW5       29.88R
HOMERVILLE     RAIN     N/A N/A N/A S6        29.89F
$$

!GMZ750-755-770-775-231400
...Coastal and Buoy Obs...

STATION/POSITION TIME  TEMP    WIND        PRES    VSBY  WAVE
                       AIR SEA DIR/SP/G                  HT/PER
                 (UTC) (F)     (DEG/KT/KT) (MB)    (MI)  (FT/S)
KEATON BEACH     1300   78     210/ 12/ 14 1011.6F
CEDAR KEY        1200   79     230/ 13/ 16 1013.3R
C TOWER          1300   77     190/ 18/ 20 1011.4F
APALACHICOLA BUO 1150   78 79  190/ 16/ 17 1011.9          3/ 8
PANAMA CITY BUOY 1150   77 76  190/ 12/ 16 1010.9          2/ 5
MOBILE BUOY      1250   78 78  200/ 21/ 25 1009.0R         7/ 6
ORANGE BCH AL BU 1150   78 79  220/ 19/ 25 1007.8          3/ 4
$$




USA.gov is the U.S. government's official web portal to all federal, state and local government web resources and services.